This is the latest recevied weather packets stored in our database for station/object KQ4KX. If no packets are shown the sender has not sent any weather packets the latest 10 day(s).
| Time | Temp. | Humidity | Pressure | Rain* | Wind** | Luminosity | Snow |
|---|---|---|---|---|---|---|---|
| 1777499515 | 31.11° C | 51% | 1011.6 hPa | 0 mm | - | - | - |
| 1777496335 | 31.67° C | 50% | 1012.1 hPa | 0 mm | - | - | - |
| 1777495075 | 32.22° C | 50% | 1012.4 hPa | 0 mm | - | - | - |
| 1777494416 | 32.22° C | 53% | 1012.5 hPa | 0 mm | - | - | - |
| 1777492796 | 32.22° C | 50% | 1013.4 hPa | 0 mm | - | - | - |
| 1777491235 | 31.67° C | 55% | 1013.8 hPa | 0 mm | - | - | - |
| 1777489645 | 30° C | 58% | 1014.7 hPa | 0 mm | - | - | - |
| 1777487785 | 30.56° C | 60% | 1015 hPa | 0 mm | - | - | - |
| 1777486165 | 30° C | 58% | 1015.4 hPa | 0 mm | - | - | - |
| 1777485865 | 30.56° C | 57% | 1015.5 hPa | 0 mm | - | - | - |
| 1777485535 | 30.56° C | 57% | 1015.4 hPa | 0 mm | - | - | - |
| 1777484545 | 30.56° C | 59% | 1015.9 hPa | 0 mm | - | - | - |
| 1777484245 | 30.56° C | 58% | 1016.1 hPa | 0 mm | - | - | - |
| 1777483015 | 31.11° C | 60% | 1016.3 hPa | 0 mm | - | - | - |
| 1777482685 | 30.56° C | 59% | 1016.3 hPa | 0 mm | - | - | - |
| 1777481785 | 30.56° C | 59% | 1016.7 hPa | 0 mm | - | - | - |
| 1777476505 | 28.89° C | 66% | 1017.8 hPa | 0 mm | - | - | - |
| 1777474645 | 27.78° C | 76% | 1018.2 hPa | 0 mm | - | - | - |
| 1777470535 | 24.44° C | 88% | 1018.3 hPa | 0 mm | - | - | - |
| 1777469905 | 23.89° C | 89% | 1017.9 hPa | 0 mm | - | - | - |
| 1777468015 | 22.78° C | 93% | 1017.9 hPa | 0 mm | - | - | - |
| 1777466155 | 22.22° C | 95% | 1017.8 hPa | 0 mm | - | - | - |
| 1777464565 | 21.11° C | 98% | 1017.5 hPa | 0 mm | - | - | - |
| 1777463935 | 20.56° C | 99% | 1017.3 hPa | 0 mm | - | - | - |
| 1777461385 | 19.44° C | 100% | 1016.7 hPa | 0 mm | - | - | - |
* Rain latest hour (hover to see other rain measurements)
** Current wind speed in m/s (hover to see current wind gust speed)